Date String (YYYY-MM-DD hh:mm:ss) UTC,Instrument flags,Ambient pressure (hPa),Sample flow (lpm),Bypass flow (lpm),Sample temperature (°C),Ambient temperature (°C),ASC tube jacket temperature (°C),LED temperature (°C),Box temperature (°C),Sample RH (%),Span deviation,Mass concentration (μg/m³),Mass concentration (μg/m³),Mass concentration (μg/m³)
DateTimeUTC,F1_M11,P_M11,Q1_M11,Q2_M11,T1_M11,T2_M11,T3_M11,T4_M11,T5_M11,U1_M11,ZSPAN_M11,X0_M11,X2_M11,X1_M11
2022-05-28 20:00:00,,0814.9,5.01,0.00,29.2,27.6,00.0,38.1,31.1,17.9,0000.0,0017.38,0008.62,0007.42
2022-05-28 20:01:00,,0814.9,4.99,0.00,29.2,27.8,00.0,38.1,31.1,18.9,0000.0,0017.93,0008.61,0007.43
2022-05-28 20:02:00,,0815.1,5.00,0.00,29.3,28.0,00.0,38.1,31.2,19.6,0000.0,0017.93,0008.57,0007.42
2022-05-28 20:03:00,,0815.0,4.99,0.00,29.3,28.1,00.0,38.1,31.3,17.9,0000.0,0018.10,0008.52,0007.42
2022-05-28 20:04:00,,0814.5,5.00,0.00,29.3,28.3,00.0,38.2,31.3,18.1,0000.0,0018.03,0008.47,0007.41
2022-05-28 20:05:00,,0814.4,5.00,0.00,29.4,28.4,00.0,38.2,31.4,17.0,0000.0,0016.96,0008.47,0007.42
2022-05-28 20:06:00,,0814.4,5.00,0.00,29.4,28.5,00.0,38.2,31.4,16.2,0000.0,0016.36,0008.45,0007.43
2022-05-28 20:07:00,,0814.4,4.99,0.00,29.5,28.6,00.0,38.2,31.5,15.5,0000.0,0016.05,0008.39,0007.40
2022-05-28 20:08:00,,0814.3,5.01,0.00,29.5,28.4,00.0,38.2,31.4,16.3,0002.3,0016.66,0008.48,0007.41
2022-05-28 20:09:00,,0814.3,5.00,0.00,29.4,27.5,00.0,38.2,31.2,17.3,0003.2,0017.09,0008.51,0007.43
2022-05-28 20:10:00,,0814.3,4.99,0.00,29.3,27.1,00.0,38.1,31.0,16.7,0003.2,0016.98,0008.50,0007.44
2022-05-28 20:11:00,,0814.2,5.01,0.00,29.3,27.1,00.0,38.1,31.0,16.6,0003.2,0016.49,0008.46,0007.42
2022-05-28 20:12:00,,0814.2,4.99,0.00,29.2,27.2,00.0,38.1,31.0,16.5,0003.5,0016.67,0008.47,0007.40
2022-05-28 20:13:00,,0814.4,5.01,0.00,29.2,27.4,00.0,38.1,31.0,17.1,0002.5,0017.27,0008.50,0007.39
2022-05-28 20:14:00,,0814.2,4.99,0.00,29.2,27.6,00.0,38.1,31.1,16.7,0000.0,0017.34,0008.50,0007.39
2022-05-28 20:15:00,,0814.3,4.99,0.00,29.3,27.8,00.0,38.1,31.2,17.3,0000.0,0017.92,0008.52,0007.38
2022-05-28 20:16:00,,0814.5,5.00,0.00,29.3,28.0,00.0,38.1,31.2,18.5,0000.0,0018.11,0008.53,0007.37
2022-05-28 20:17:00,,0814.2,5.01,0.00,29.3,28.1,00.0,38.1,31.3,17.3,0000.0,0018.37,0008.51,0007.34
2022-05-28 20:18:00,,0814.4,5.01,0.00,29.4,28.3,00.0,38.2,31.3,17.4,0000.0,0018.42,0008.51,0007.34
2022-05-28 20:19:00,,0814.1,4.98,0.00,29.4,28.4,00.0,38.2,31.4,17.4,0000.0,0018.17,0008.49,0007.35
2022-05-28 20:20:00,,0814.2,5.00,0.00,29.4,28.6,00.0,38.2,31.4,19.9,0000.0,0017.92,0008.44,0007.31
2022-05-28 20:21:00,,0814.1,5.00,0.00,29.5,28.7,00.0,38.2,31.5,17.7,0000.0,0017.21,0008.39,0007.28
2022-05-28 20:22:00,,0814.2,5.00,0.00,29.5,28.2,00.0,38.2,31.4,16.8,0000.0,0017.01,0008.38,0007.28
2022-05-28 20:23:00,,0814.1,5.00,0.00,29.4,27.4,00.0,38.2,31.1,17.5,0000.0,0017.06,0008.41,0007.28
2022-05-28 20:24:00,,0814.0,5.02,0.00,29.3,27.1,00.0,38.1,31.0,16.3,0000.0,0016.43,0008.44,0007.29
2022-05-28 20:25:00,,0814.1,4.99,0.00,29.3,27.1,00.0,38.1,31.0,15.4,0000.0,0015.98,0008.43,0007.30
2022-05-28 20:26:00,,0814.0,5.00,0.00,29.2,27.2,00.0,38.1,31.0,16.9,0000.0,0016.10,0008.45,0007.29
2022-05-28 20:27:00,,0814.0,5.01,0.00,29.2,27.4,00.0,38.1,31.0,17.0,0000.0,0016.13,0008.45,0007.30
2022-05-28 20:28:00,,0814.0,5.01,0.00,29.2,27.6,00.0,38.1,31.1,16.6,0001.7,0015.59,0008.42,0007.31
2022-05-28 20:29:00,,0814.0,5.00,0.00,29.3,27.8,00.0,38.1,31.2,17.2,0000.9,0015.83,0008.51,0007.35
2022-05-28 20:30:00,,0814.0,5.00,0.00,29.3,28.0,00.0,38.1,31.2,18.6,0003.4,0016.01,0008.55,0007.36
2022-05-28 20:31:00,,0813.9,4.99,0.00,29.3,28.2,00.0,38.1,31.3,19.2,0004.4,0016.06,0008.55,0007.38
2022-05-28 20:32:00,,0813.9,5.00,0.00,29.4,28.3,00.0,38.2,31.3,19.1,0003.5,0016.57,0008.55,0007.41
2022-05-28 20:33:00,,0813.9,5.00,0.00,29.4,28.4,00.0,38.2,31.4,19.0,0003.7,0016.28,0008.56,0007.42
2022-05-28 20:34:00,,0814.0,5.00,0.00,29.4,28.6,00.0,38.2,31.4,19.4,0011.0,0015.82,0008.55,0007.43
2022-05-28 20:35:00,,0813.9,5.00,0.00,29.5,28.6,00.0,38.2,31.5,20.2,0010.7,0015.90,0008.55,0007.45
2022-05-28 20:36:00,,0814.0,5.00,0.00,29.5,28.2,00.0,38.2,31.3,20.8,0007.7,0016.31,0008.53,0007.43
2022-05-28 20:37:00,,0814.0,5.01,0.00,29.4,27.3,00.0,38.1,31.1,20.8,0009.1,0016.65,0008.49,0007.41
2022-05-28 20:38:00,,0813.9,5.00,0.00,29.3,27.1,00.0,38.1,31.0,21.2,0002.3,0016.64,0008.49,0007.42
2022-05-28 20:39:00,,0814.0,5.00,0.00,29.3,27.1,00.0,38.1,31.0,21.3,0001.2,0016.57,0008.49,0007.42
2022-05-28 20:40:00,,0813.8,4.99,0.00,29.2,27.3,00.0,38.1,31.0,20.9,0001.3,0016.43,0008.49,0007.42
2022-05-28 20:41:00,,0813.8,5.02,0.00,29.2,27.4,00.0,38.1,31.0,21.9,0001.2,0016.57,0008.55,0007.43
2022-05-28 20:42:00,,0813.8,5.00,0.00,29.2,27.6,00.0,38.1,31.1,22.0,0001.4,0016.60,0008.54,0007.44
2022-05-28 20:43:00,,0813.7,5.00,0.00,29.3,27.8,00.0,38.1,31.2,20.9,0001.8,0016.36,0008.57,0007.46
2022-05-28 20:44:00,,0813.7,4.99,0.00,29.3,28.0,00.0,38.1,31.2,20.4,0001.2,0016.37,0008.62,0007.48
2022-05-28 20:45:00,,0813.7,4.99,0.00,29.3,28.2,00.0,38.1,31.3,21.1,0002.2,0016.75,0008.66,0007.51
2022-05-28 20:46:00,,0813.7,5.00,0.00,29.4,28.3,00.0,38.2,31.3,19.4,0001.2,0016.68,0008.68,0007.53
2022-05-28 20:47:00,,0813.7,5.00,0.00,29.4,28.5,00.0,38.2,31.4,19.4,0000.8,0017.10,0008.76,0007.57
2022-05-28 20:48:00,,0814.0,5.01,0.00,29.4,28.6,00.0,38.2,31.4,20.0,0000.4,0017.27,0008.87,0007.65
2022-05-28 20:49:00,,0814.1,5.00,0.00,29.5,28.3,00.0,38.2,31.4,19.0,0000.0,0017.55,0009.00,0007.71
2022-05-28 20:50:00,,0813.6,5.00,0.00,29.4,27.5,00.0,38.1,31.1,18.0,0000.0,0017.77,0009.09,0007.76
2022-05-28 20:51:00,,0813.6,5.00,0.00,29.3,27.1,00.0,38.1,31.0,18.6,0000.0,0018.84,0009.20,0007.83
2022-05-28 20:52:00,,0813.5,5.00,0.00,29.3,27.0,00.0,38.1,31.0,17.8,0000.0,0018.64,0009.16,0007.88
2022-05-28 20:53:00,,0813.7,5.01,0.00,29.2,27.2,00.0,38.1,31.0,18.8,0000.0,0018.34,0009.20,0007.92
2022-05-28 20:54:00,,0813.8,4.99,0.00,29.2,27.3,00.0,38.1,31.0,20.2,0000.0,0019.38,0009.27,0007.98
2022-05-28 20:55:00,,0813.5,5.00,0.00,29.2,27.5,00.0,38.1,31.1,18.8,0000.0,0020.17,0009.29,0008.01
2022-05-28 20:56:00,,0813.6,5.00,0.00,29.2,27.7,00.0,38.1,31.1,19.7,0000.0,0020.56,0009.29,0008.03
2022-05-28 20:57:00,,0813.5,4.99,0.00,29.3,27.9,00.0,38.1,31.2,20.3,0000.0,0020.67,0009.31,0008.05
2022-05-28 20:58:00,,0813.5,5.01,0.00,29.3,28.1,00.0,38.1,31.2,19.7,0000.0,0019.97,0009.30,0008.03
2022-05-28 20:59:00,,0813.5,5.01,0.00,29.3,28.2,00.0,38.1,31.3,19.4,0000.0,0019.59,0009.26,0008.00
